Stations météo

Publicité
Le Havre/Octeville, France (7046): Température de l'air & dewpoint: 10.07.2018 14:00:00 - 16.07.2018 14:00:00 (CEST)Le Havre/Octeville, France (7046): Vitesse du vent & gusts: 10.07.2018 14:00:00 - 16.07.2018 14:00:00 (CEST)Le Havre/Octeville, France (7046): Direction du vent: 10.07.2018 14:00:00 - 16.07.2018 14:00:00 (CEST)Le Havre/Octeville, France (7046): reduced air pressure: 10.07.2018 14:00:00 - 16.07.2018 14:00:00 (CEST)Le Havre/Octeville, France (7046): visibility: 10.07.2018 14:00:00 - 16.07.2018 14:00:00 (CEST)Le Havre/Octeville, France (7046): Quantités de précipitations: 10.07.2018 14:00:00 - 16.07.2018 14:00:00 (CEST)
Date & Time tt [°C] td [°C] ff [km/h] ff [knt] fx [km/h] fx [knt] dd ppp [hPa] vv [km] rr [mm]
16.07.2018 14:00:00 20,8 14,0 16 8 21 11 WNW 1015,1 19 0,0
16.07.2018 13:00:00 20,8 13,7 10 5 16 9 NW 1015,1 19 0,0
16.07.2018 12:00:00 19,9 14,7 10 5 16 9 W 1015,3 19 0,0
16.07.2018 11:00:00 19,8 14,2 7 4 18 10 WNW 1014,9 20 0,0
16.07.2018 10:00:00 19,0 14,3 11 6 18 10 W 1014,9 19 0,0
16.07.2018 09:00:00 18,7 14,6 10 5 18 10 NW 1014,6 18 0,0
16.07.2018 08:00:00 17,5 14,6 13 7 18 10 W 1014,5 14 0,0
16.07.2018 07:00:00 15,8 13,8 10 6 14 8 W 1014,8 13 0,0
16.07.2018 06:00:00 14,7 12,9 9 5 14 8 W 1014,7 11 0,0
16.07.2018 05:00:00 14,1 11,8 6 3 8 5 W 1015,1 11 0,0
16.07.2018 04:00:00 15,0 12,7 5 3 11 6 W 1015,4 15 0,0
16.07.2018 03:00:00 15,0 12,7 0 0 6 3 N 1015,7 18 0,0
16.07.2018 02:00:00 15,5 12,8 5 3 6 3 N 1015,9 14 0,0
16.07.2018 01:00:00 15,2 12,5 3 2 6 4 NNW 1016,2 17 0,0
16.07.2018 00:00:00 16,2 12,7 5 3 9 5 NNW 1016,2 19 0,0
15.07.2018 23:00:00 16,1 11,9 3 1 8 5 N 1016,1 28 0,0
15.07.2018 22:00:00 17,1 10,7 8 4 13 7 NNW 1015,9 39 0,0
15.07.2018 21:00:00 18,6 12,6 10 6 21 12 N 1015,5 27 0,0
15.07.2018 20:00:00 19,0 15,1 13 7 24 13 N 1015,5 12 0,0
15.07.2018 19:00:00 20,8 12,7 16 9 27 15 N 1015,5 20 0,0
15.07.2018 18:00:00 20,2 13,2 21 11 31 17 NNW 1015,8 20 0,0
15.07.2018 17:00:00 20,1 14,0 21 11 28 15 NNW 1015,9 17 0,0
15.07.2018 16:00:00 20,7 15,3 17 9 28 15 NNW 1016,0 17 0,0
15.07.2018 15:00:00 21,3 13,7 18 10 27 14 NNW 1016,3 19 0,0
15.07.2018 14:00:00 20,6 14,7 17 9 24 13 NNW 1016,8 19 0,0
15.07.2018 13:00:00 20,7 14,1 17 9 24 13 NNW 1016,9 20 0,0
15.07.2018 12:00:00 20,9 13,1 17 9 23 12 NNW 1017,1 17 0,0
15.07.2018 11:00:00 20,2 13,9 14 8 20 11 N 1017,2 15 0,0
15.07.2018 10:00:00 18,9 14,8 12 7 16 9 NNW 1017,4 11 0,0
15.07.2018 09:00:00 18,3 15,2 10 5 14 8 N 1017,4 15 0,0
15.07.2018 08:00:00 17,0 15,7 5 3 11 6 N 1017,6 6 0,0
15.07.2018 07:00:00 15,3 14,3 4 2 6 4 N 1017,2 3,2 0,0
15.07.2018 06:00:00 15,1 14,0 5 3 11 6 NNE 1017,3 4,0 0,0
15.07.2018 05:00:00 15,3 14,2 6 3 13 7 N 1017,7 7 0,0
15.07.2018 04:00:00 15,4 14,3 11 6 14 8 NNW 1017,9 7 0,2
15.07.2018 03:00:00 15,1 14,0 9 5 13 7 N 1018,2 15 0,0
15.07.2018 02:00:00 14,8 13,7 9 5 14 7 N 1018,7 8 0,0
15.07.2018 01:00:00 15,3 14,2 10 6 14 8 N 1019,0 13 0,0
15.07.2018 00:00:00 16,1 15,1 11 6 21 11 N 1018,8 9 0,0
14.07.2018 23:00:00 16,3 15,2 13 7 24 13 N 1018,8 10 0,0
14.07.2018 22:00:00 17,4 14,9 17 9 23 12 N 1018,4 26 0,0
14.07.2018 21:00:00 20,2 14,1 11 6 16 9 N 1018,0 45 0,0
14.07.2018 20:00:00 21,6 12,7 14 8 22 12 N 1018,2 45 0,0
14.07.2018 19:00:00 22,4 12,6 18 10 28 15 N 1018,5 18 0,0
14.07.2018 18:00:00 20,9 14,1 20 11 26 14 NNW 1018,8 41 0,0
14.07.2018 17:00:00 21,7 13,3 21 11 27 15 N 1019,0 18 0,0
14.07.2018 16:00:00 22,6 13,6 20 11 28 15 N 1019,4 34 0,0
14.07.2018 15:00:00 20,4 14,7 24 13 30 16 NNW 1019,9 38 0,0
14.07.2018 14:00:00 22,6 13,6 22 12 34 18 NNW 1019,8 20 0,0
14.07.2018 13:00:00 21,7 13,8 22 12 28 15 NNW 1019,9 20 0,0
14.07.2018 12:00:00 21,6 14,0 17 9 21 11 NNW 1020,3 34 0,0
14.07.2018 11:00:00 20,6 14,7 13 7 17 9 NNW 1020,7 20 0,0
14.07.2018 10:00:00 21,5 13,1 8 4 13 7 ENE 1020,8 17 0,0
14.07.2018 09:00:00 19,0 16,0 8 4 12 6 ENE 1021,0 12 0,0
14.07.2018 08:00:00 15,5 15,0 8 5 12 6 E 1020,9 1,1 0,0
14.07.2018 07:00:00 14,8 14,3 7 4 12 6 ENE 1020,8 0,1 0,0
14.07.2018 06:00:00 14,6 14,0 5 3 13 7 E 1020,8 0,1 0,0
14.07.2018 05:00:00 14,8 14,0 6 3 11 6 ENE 1020,8 3,7 0,2
14.07.2018 04:00:00 14,9 13,9 7 4 15 8 N 1020,9 4,4 0,0
14.07.2018 03:00:00 15,3 14,2 9 5 12 6 N 1021,2 8 0,0
14.07.2018 02:00:00 15,0 13,0 3 1 9 5 NNW 1021,5 14 0,0
14.07.2018 01:00:00 16,2 13,3 6 3 13 7 NNE 1021,6 18 0,0
14.07.2018 00:00:00 16,5 12,8 8 4 12 6 NE 1021,6 28 0,0
13.07.2018 23:00:00 17,1 11,1 5 3 19 10 NNE 1021,4 46 0,0
13.07.2018 22:00:00 19,4 11,9 14 8 21 12 NE 1020,7 51 0,0
13.07.2018 21:00:00 20,9 12,1 16 8 23 12 NNE 1020,4 41 0,0
13.07.2018 20:00:00 22,4 11,5 19 10 26 14 NNE 1020,2 43 0,0
13.07.2018 19:00:00 23,5 11,5 18 10 27 15 NNE 1020,2 35 0,0
13.07.2018 18:00:00 23,8 12,7 19 11 29 16 N 1020,2 30 0,0
13.07.2018 17:00:00 23,3 14,6 22 12 31 17 NNW 1020,6 29 0,0
13.07.2018 16:00:00 22,3 14,4 25 13 31 17 N 1020,9 19 0,0
13.07.2018 15:00:00 23,2 14,2 17 9 27 15 N 1021,2 41 0,0
13.07.2018 14:00:00 23,4 14,7 16 9 27 14 N 1021,5 19 0,0
13.07.2018 13:00:00 22,3 15,4 14 7 18 10 NNW 1021,6 19 0,0
13.07.2018 12:00:00 20,4 13,1 6 4 16 9 ENE 1021,6 45 0,0
13.07.2018 11:00:00 19,4 13,8 9 5 15 8 ENE 1021,6 34 0,0
13.07.2018 10:00:00 18,0 13,7 11 6 18 10 ENE 1021,7 20 0,0
13.07.2018 09:00:00 17,2 14,5 15 8 21 11 ENE 1021,6 13 0,0
13.07.2018 08:00:00 16,4 14,9 13 7 18 10 NE 1021,3 8 0,0
13.07.2018 07:00:00 16,0 14,9 14 8 23 12 NE 1021,2 5 0,0
13.07.2018 06:00:00 15,8 15,0 14 8 23 12 NE 1021,4 7 0,0
13.07.2018 05:00:00 15,4 14,8 12 6 18 10 NNE 1021,5 3,2 0,0
13.07.2018 04:00:00 15,4 14,6 8 4 14 7 N 1021,6 2,5 0,0
13.07.2018 03:00:00 15,4 14,6 11 6 17 9 NNE 1021,6 2,5 0,0
13.07.2018 02:00:00 14,9 13,8 8 5 12 6 N 1021,7 6 0,0
13.07.2018 01:00:00 14,1 12,7 8 4 14 7 N 1021,7 6 0,0
13.07.2018 00:00:00 15,3 13,3 10 6 17 9 NE 1021,5 9 0,0
12.07.2018 23:00:00 15,9 13,4 11 6 19 10 ENE 1021,3 14 0,0
12.07.2018 22:00:00 16,7 13,0 8 5 17 9 NNE 1020,8 18 0,0
12.07.2018 21:00:00 19,1 12,8 14 8 19 11 NNE 1020,7 31 0,0
12.07.2018 20:00:00 19,6 14,0 11 6 25 13 N 1020,7 32 0,0
12.07.2018 19:00:00 21,1 12,0 20 11 30 16 NNE 1020,6 46 0,0
12.07.2018 18:00:00 22,2 12,2 18 10 29 16 NNE 1020,4 35 0,0
12.07.2018 17:00:00 22,0 12,0 21 11 38 20 NNE 1020,6 20 0,0
12.07.2018 16:00:00 21,3 14,0 25 13 33 18 N 1020,8 16 0,0
12.07.2018 15:00:00 20,9 13,8 26 14 35 19 N 1020,9 18 0,0
12.07.2018 14:00:00 20,5 13,9 26 14 34 19 N 1021,1 19 0,0
12.07.2018 13:00:00 20,2 14,1 24 13 31 17 NNW 1021,3 17 0,0
12.07.2018 12:00:00 19,5 13,7 22 12 30 16 N 1021,1 17 0,0
12.07.2018 11:00:00 18,4 13,0 18 10 29 16 N 1021,2 19 0,0
12.07.2018 10:00:00 18,6 13,2 13 7 22 12 NNE 1021,1 18 0,0
12.07.2018 09:00:00 17,4 13,9 15 8 21 12 NNE 1021,0 18 0,0
12.07.2018 08:00:00 15,7 14,2 13 7 19 10 NNE 1020,9 11 0,0
12.07.2018 07:00:00 14,1 13,3 10 6 13 7 NNE 1020,8 3,8 0,0
12.07.2018 06:00:00 13,0 12,1 8 5 15 8 NNE 1020,6 3,8 0,0
12.07.2018 05:00:00 13,4 12,5 11 6 16 9 NNE 1020,4 6 0,0
12.07.2018 04:00:00 13,4 12,3 10 5 14 8 NNE 1020,6 7 0,0
12.07.2018 03:00:00 13,4 12,5 10 5 14 8 N 1020,7 8 0,0
12.07.2018 02:00:00 13,3 12,2 11 6 13 7 N 1020,9 7 0,0
12.07.2018 01:00:00 13,9 12,5 4 2 11 6 NNE 1020,9 10 0,0
12.07.2018 00:00:00 14,5 12,5 9 5 19 11 NNE 1020,8 15 0,0
11.07.2018 23:00:00 15,1 12,6 15 8 19 10 NNE 1021,0 18 0,0
11.07.2018 22:00:00 16,1 10,6 12 7 21 12 NNE 1020,5 45 0,0
11.07.2018 21:00:00 18,3 11,1 16 9 23 12 NNE 1020,4 50 0,0
11.07.2018 20:00:00 19,7 12,5 13 7 28 15 N 1020,1 51 0,0
11.07.2018 19:00:00 19,9 12,4 18 10 30 16 N 1020,1 20 0,0
11.07.2018 18:00:00 19,9 12,6 23 12 33 18 NNW 1020,4 27 0,0
11.07.2018 17:00:00 20,4 13,1 21 11 35 19 N 1020,6 23 0,0
11.07.2018 16:00:00 19,2 13,4 29 15 38 20 N 1020,9 19 0,0
11.07.2018 15:00:00 19,3 13,2 27 14 38 21 N 1021,1 29 0,0
11.07.2018 14:00:00 18,6 13,2 27 15 36 20 N 1021,1 19 0,0
11.07.2018 13:00:00 18,2 13,3 27 15 36 20 N 1021,3 20 0,0
11.07.2018 12:00:00 18,7 13,3 24 13 32 18 N 1021,4 19 0,0
11.07.2018 11:00:00 17,3 12,0 18 10 24 13 NNW 1021,6 42 0,0
11.07.2018 10:00:00 18,0 11,1 14 8 20 11 N 1021,6 47 0,0
11.07.2018 09:00:00 16,8 11,1 11 6 16 9 NNW 1021,8 59 0,0
11.07.2018 08:00:00 16,0 12,2 10 5 14 7 N 1021,8 46 0,0
11.07.2018 07:00:00 15,3 12,6 6 4 9 5 N 1021,7 38 0,0
11.07.2018 06:00:00 14,6 12,3 6 4 10 6 N 1021,7 29 0,0
11.07.2018 05:00:00 14,6 11,9 8 4 10 5 N 1021,6 39 0,0
11.07.2018 04:00:00 14,3 11,6 5 3 12 6 N 1021,7 45 0,0
11.07.2018 03:00:00 13,5 11,4 6 4 11 6 NE 1022,1 45 0,0
11.07.2018 02:00:00 12,7 10,6 9 5 13 7 NNE 1022,0 40 0,0
11.07.2018 01:00:00 13,1 10,8 10 5 16 9 NNE 1022,2 39 0,0
11.07.2018 00:00:00 13,5 10,7 12 6 16 8 NNE 1022,5 47 0,0
10.07.2018 23:00:00 13,7 9,7 10 5 13 7 NNE 1022,3 58 0,0
10.07.2018 22:00:00 16,0 8,5 9 5 23 12 NE 1022,0 60 0,0
10.07.2018 21:00:00 17,6 8,7 17 9 32 17 NE 1021,9 59 0,0
10.07.2018 20:00:00 18,3 8,0 18 10 33 18 NE 1021,7 59 0,0
10.07.2018 19:00:00 18,3 7,7 25 14 40 22 NNE 1021,7 46 0,0
10.07.2018 18:00:00 18,8 7,6 29 16 43 23 NNE 1022,1 42 0,0
10.07.2018 17:00:00 18,9 8,2 25 13 40 21 N 1022,3 60 0,0
10.07.2018 16:00:00 19,0 9,2 29 15 41 22 N 1022,7 25 0,0
10.07.2018 15:00:00 18,8 10,6 29 16 44 24 N 1022,6 20 0,0
10.07.2018 14:00:00 18,8 11,1 29 16 44 24 N 1022,7 36 0,0

tt = Température de l'air
td = dewpoint
ff = Vitesse du vent
fx = gusts
dd = Direction du vent
ppp = reduced air pressure
vv = visibility
rr = Quantités de précipitations

stations d'obs. à proximité